Location: Newark
(37.8333°N, 119.5000°W)
Time: 17:30:01
(UTC+00:00)

Tiros 1 despin weight - Pass Details

Date: 25 August 2019
Orbit: 594 x 642 km, 48.2° (Epoch: 22 September)

Event Time Altitude Azimuth Distance (km) Brightness Sun altitude
Rises 04:08:41 0° 178° (S) 2,811 - -17.2°
Reaches altitude 10° 04:13:34 10° 131° (SE) 1,920 - -18.1°
Maximum altitude 04:13:44 10° 128° (SE) 1,919 - -18.1°
Drops below altitude 10° 04:13:52 10° 127° (SE) 1,920 - -18.1°
Sets 04:18:48 0° 79° (ENE) 2,838 - -19.0°
